Regional Weather Roundup
Issued by NWS

Home | Current Version | Previous Version | Graphics & Text | Print | Product List | Glossary On
Versions: 1 2 3 4 5 6 7 8 9 10 11 12 13 14 15 16 17 18 19 20 21 22 23 24 25 26 27 28 29 30 31 32 33 34 35 36 37 38 39 40 41 42 43 44 45 46 47 48 49 50
000
ASUS43 KBIS 192110
RWRND

NORTH DAKOTA REGIONAL WEATHER ROUNDUP
NATIONAL WEATHER SERVICE BISMARCK ND
400 PM CDT TUE AUG 19 2014

NOTE: "FAIR" INDICATES FEW OR NO CLOUDS BELOW 12,000 FEET WITH NO
SIGNIFICANT WEATHER AND/OR OBSTRUCTIONS TO VISIBILITY.


NDZ001>003-009>011-017-192200-
NORTHWEST NORTH DAKOTA

CITY           SKY/WX    TMP DP  RH WIND       PRES   REMARKS
WILLISTON      SUNNY     90  51  26 SE10      29.69F
MINOT          SUNNY     85  55  35 E7        29.72S
MINOT AFB      SUNNY     85  53  32 NW3       29.71F
$$

NDZ018>021-031>035-040>046-192200-
SOUTHWEST NORTH DAKOTA

CITY           SKY/WX    TMP DP  RH WIND       PRES   REMARKS
BISMARCK       SUNNY     87  60  40 S5        29.75F
DICKINSON      SUNNY     86  60  41 S9        29.74F
GARRISON         N/A     83  61  47 VRB6      29.74F
HETTINGER ARPT SUNNY     88  55  32 S9        29.77F
$$

NDZ004>008-012>016-024-026-027-054-192200-
NORTHEAST NORTH DAKOTA

CITY           SKY/WX    TMP DP  RH WIND       PRES   REMARKS
GRAND FORKS    MOSUNNY   82  64  54 NE3       29.73S
GRND FRKS AFB  PTSUNNY   80  66  61 N5        29.75S
DEVILS LAKE    SUNNY     82  61  47 S6        29.73S
$$

NDZ022-023-025-028>030-036>039-047>053-192200-
SOUTHEAST NORTH DAKOTA

CITY           SKY/WX    TMP DP  RH WIND       PRES   REMARKS
FARGO          MOSUNNY   80  65  59 N5        29.74F
JAMESTOWN      MOSUNNY   81  63  54 CALM      29.75F
$$



USA.gov is the U.S. government's official web portal to all federal, state and local government web resources and services.